Tracking 21676 objects as of 29-Oct-2020
HD Live streaming from Space Station
objects crossing your sky now

EKRAN 15

Track EKRAN 15 now!
EKRAN 15 is classified as:


NORAD ID: 16729
Int'l Code: 1986-038A
Perigee: 36,825.9 km
Apogee: 36,917.5 km
Inclination: 14.7 °
Period: 1,491.5 minutes
Semi major axis: 43242 km
RCS: 5.2216 m2 (large)
Launch date: May 24, 1986
Source: Commonwealth of Independent States (former USSR) (CIS)
Launch site: TYURATAM MISSILE AND SPACE COMPLEX (TTMTR)
aabbcc
Your satellite tracking list
Your tracking list is empty




NASA's NSSDC Master Catalog

Two Line Element Set (TLE):
1 16729U 86038A   20302.15116132 -.00000069 +00000-0 +00000-0 0  9993
2 16729 014.6993 337.8494 0010583 337.4922 204.1765 00.96545861098482
Source of the keplerian elements: AFSPC